Find Starlink 36167

NORAD ID: 67011 Int'l Des: 2025-293 Owner: SPXS Country: US Constellation: starlink operational
LEOCIRCULAR

Current View

Loading 3D Globe...

About Starlink 36167

Description loading...

Upcoming Passes

Passes for default location (London). Set your location on the main map for personalized predictions.

Altitude History

Loading altitude history...

Two-Line Element Set

1 67011U 25293J 26146.27836953 .00006986 00000-0 59256-3 0 9997
2 67011 70.0011 258.6730 0003132 270.8793 89.2007 14.98340497 26511
Epoch: May 26, 2026 • Age: 5 hours

Current Status

Altitude 575.5 km
Velocity 7.58 km/s
Sub-Earth Point 25.17°N, 150.21°W
Launch Date Dec 10, 2025
Age 0.4 years
Type internet

Technical Details

Classification Payload
Mass 575.00 kg
Dry Mass 530.00 kg
Total Mass 575.00 kg
Length 0.30 m
Diameter 4.10 m
Span 29.00 m
Shape Box + pan
Manufacturer SPXS
Bus Type Starlink V2MO
Phase Status In Orbit
Owner/State SPXS/US

Most Searched